This is the latest recevied weather packets stored in our database for station/object N9GKE-1. If no packets are shown the sender has not sent any weather packets the latest 10 day(s).
| Time | Temp. | Humidity | Pressure | Rain* | Wind** | Luminosity | Snow |
|---|---|---|---|---|---|---|---|
| 1777558149 | 9.44° C | 75% | 1018 hPa | 0 mm | - | - | - |
| 1777557778 | 9.44° C | 77% | 1018.1 hPa | 0 mm | - | - | - |
| 1777557550 | 9.44° C | 78% | 1018.1 hPa | 0 mm | - | - | - |
| 1777557177 | 8.89° C | 78% | 1018.2 hPa | 0 mm | - | - | - |
| 1777556950 | 8.89° C | 78% | 1018.1 hPa | 0 mm | - | - | - |
| 1777556577 | 8.89° C | 81% | 1018.2 hPa | 0 mm | - | - | - |
| 1777556349 | 8.33° C | 81% | 1018.1 hPa | 0 mm | - | - | - |
| 1777555977 | 8.33° C | 80% | 1018 hPa | 0 mm | - | - | - |
| 1777555750 | 8.33° C | 80% | 1018 hPa | 0 mm | - | - | - |
| 1777555378 | 7.78° C | 81% | 1017.9 hPa | 0 mm | - | - | - |
| 1777555151 | 7.78° C | 82% | 1017.9 hPa | 0 mm | - | - | - |
| 1777554778 | 7.78° C | 84% | 1017.8 hPa | 0 mm | - | - | - |
| 1777554551 | 7.22° C | 84% | 1017.9 hPa | 0 mm | - | - | - |
| 1777554178 | 7.22° C | 86% | 1018 hPa | 0 mm | - | - | - |
| 1777553949 | 6.67° C | 87% | 1018 hPa | 0 mm | - | - | - |
| 1777553577 | 6.11° C | 91% | 1018.1 hPa | 0 mm | - | - | - |
| 1777552980 | 5.56° C | 92% | 1017.9 hPa | 0 mm | - | - | - |
| 1777552377 | 5.56° C | 94% | 1017.8 hPa | 0 mm | - | - | - |
| 1777552150 | 5.56° C | 95% | 1017.7 hPa | 0 mm | - | - | - |
| 1777551777 | 5° C | 95% | 1017.8 hPa | 0 mm | - | - | - |
| 1777551550 | 5° C | 95% | 1017.8 hPa | 0 mm | - | - | - |
| 1777551177 | 4.44° C | 96% | 1017.7 hPa | 0 mm | - | - | - |
| 1777550578 | 3.89° C | 97% | 1017.6 hPa | 0 mm | - | - | - |
| 1777550351 | 3.89° C | 97% | 1017.5 hPa | 0 mm | - | - | - |
| 1777549981 | 2.78° C | 96% | 1017.4 hPa | 0 mm | - | - | - |
* Rain latest hour (hover to see other rain measurements)
** Current wind speed in m/s (hover to see current wind gust speed)